Simultaneous Nadir Overpasses (SNOs) Predictions

Prediction of SNOs between GOES-17 and AQUA Satellite Orbit:

Table of predicted SNOs for the next 14.0 days since TLE Epoch: 1/4/2020
Index Date Time (GOES-17) GOES-17 Lat,Lon AQUA Lat,Lon Distance(km) Time Diff (sec)
1 01/05/2020 10:42:42 0.02,-137.24 0.00,-137.14 11.37 80
2 01/07/2020 10:30:31 0.03,-137.26 -0.66,-134.19 350.13 80
3 01/07/2020 22:54:35 -0.03,-137.26 -0.49,-139.37 240.08 80
4 01/09/2020 22:39:44 -0.03,-137.27 0.18,-136.42 97.56 80
5 01/10/2020 11:03:38 0.04,-137.28 0.98,-141.56 487.88 80
6 01/11/2020 22:27:32 -0.03,-137.28 0.78,-133.46 434.25 80
7 01/12/2020 10:51:27 0.04,-137.28 0.32,-138.61 151.32 80
8 01/14/2020 10:36:35 0.04,-137.28 -0.29,-135.65 184.70 80
9 01/14/2020 23:00:40 -0.04,-137.27 -0.79,-140.85 406.24 80
10 01/16/2020 22:48:28 -0.04,-137.26 -0.17,-137.88 70.63 80




NCC Satellite Simultaneous Nadir Overpasses (SNOs) Prediction Service
